User: anonymous   Login
Location: Unspecified
(0.0000°N, 0.0000°E)
Time: 18:09:37
(UTC+00:00)
Language:

Nadezhda 1 - Orbit

View from above orbital plane
View from above orbital plane
View from above satellite
View from above satellite

Ground track
Ground track

The orbit is defined by the following mean orbital elements,

1 20103U          26106.20709317 +.00000000 +00000-0 +50744-4 0 00007
2 20103  82.9635 347.2601 0036098 281.4274 195.8415 13.74846666    02
Epoch (UTC): 16 April 2026 04:58:12
Eccentricity: 0.0036098
inclination: 82.9635°
perigee height: 956 km
apogee height: 1009 km
right ascension of ascending node: 347.2601°
argument of perigee: 281.4274°
revolutions per day: 13.74846666
mean anomaly at epoch: 195.8415°

The dashed part of the orbit path shows where the satellite is in the earth's shadow,  

DLR